Location: The Saddle
(36.8333°N, 80.3417°W)
Time: 15:32:41
(UTC-05:00)

Vanguard 3 - All Passes

Search period start: 30 January 2023 00:00
Search period end: 09 February 2023 00:00
Orbit: 509 x 3252 km, 33.4° (Epoch: 30 January)

Date Brightness Start Highest point End Pass type
(mag) Time Alt. Az. Time Alt. Az. Time Alt. Az.
30 Jan - 00:35:01 10° W 00:52:41 67° SSW 01:11:37 10° ESE visible
30 Jan - 02:51:10 10° W 03:08:08 38° SW 03:23:08 10° SSE visible
30 Jan - 05:19:16 10° WSW 05:20:55 10° SW 05:22:32 10° SW visible
30 Jan - 16:50:43 10° SE 16:53:36 12° SE 16:56:54 10° ESE daylight
30 Jan - 18:55:16 10° SW 19:04:09 46° SSE 19:18:57 10° E visible
30 Jan - 21:05:44 10° WSW 21:17:59 76° S 21:37:13 10° E visible
30 Jan - 23:18:26 10° W 23:34:18 75° S 23:54:18 10° ESE visible
31 Jan - 01:32:59 10° W 01:50:38 52° SSW 02:08:10 10° SE visible
31 Jan - 03:51:49 10° W 04:04:48 22° SW 04:16:21 10° S visible
31 Jan - 17:42:06 10° SSW 17:48:54 28° SE 17:59:18 10° E daylight
31 Jan - 19:50:53 10° WSW 20:00:56 65° SSE 20:18:04 10° E visible
31 Jan - 22:02:29 10° W 22:16:07 79° S 22:36:01 10° E visible
01 Feb - 00:15:52 10° W 00:32:36 64° SSW 00:51:51 10° SE visible
01 Feb - 02:31:47 10° W 02:47:59 35° SW 03:03:16 10° SSE visible
01 Feb - 16:31:27 10° SSE 16:34:24 12° SE 16:37:54 10° ESE daylight
01 Feb - 18:36:44 10° SW 18:44:51 48° SSE 18:58:49 10° E visible
01 Feb - 20:47:09 10° WSW 20:58:28 76° S 21:17:04 10° E visible
01 Feb - 22:59:32 10° W 23:14:23 73° SSW 23:34:21 10° ESE visible
02 Feb - 01:13:43 10° W 01:30:29 48° SSW 01:48:17 10° SE visible
02 Feb - 03:32:49 10° W 03:44:46 20° SW 03:55:56 10° S visible
02 Feb - 17:23:29 10° SSW 17:29:43 29° SE 17:39:27 10° E daylight
02 Feb - 19:32:24 10° WSW 19:41:38 67° SSE 19:57:51 10° E visible
02 Feb - 21:43:49 10° W 21:56:26 78° S 22:15:54 10° ESE visible
02 Feb - 23:56:49 10° W 00:12:32 60° SSW 00:31:52 10° SE visible
03 Feb - 02:12:34 10° W 02:27:51 32° SW 02:43:08 10° SSE visible
03 Feb - 16:12:22 10° SSE 16:15:18 13° SE 16:18:48 10° ESE daylight
03 Feb - 18:18:16 10° SW 18:25:42 50° SSE 18:38:43 10° E visible
03 Feb - 20:28:39 10° WSW 20:39:03 77° S 20:56:50 10° E visible
03 Feb - 22:40:43 10° W 22:54:32 70° SSW 23:14:15 10° ESE visible
04 Feb - 00:54:37 10° W 01:10:21 44° SSW 01:28:09 10° SSE visible
04 Feb - 03:14:12 10° W 03:24:44 17° SW 03:35:02 10° SSW visible
04 Feb - 17:04:55 10° SSW 17:10:38 30° SE 17:19:40 10° E daylight
04 Feb - 19:13:59 10° WSW 19:22:26 68° SSE 19:37:38 10° E visible
04 Feb - 21:25:13 10° W 21:36:52 76° S 21:55:40 10° ESE visible
04 Feb - 23:37:53 10° W 23:52:33 56° SSW 00:11:40 10° SE visible
05 Feb - 01:53:34 10° W 02:07:44 29° SW 02:22:40 10° S visible
05 Feb - 15:53:25 10° SSE 15:56:15 13° SE 15:59:43 10° ESE daylight
05 Feb - 17:59:51 10° SW 18:06:38 51° SSE 18:18:39 10° E visible
05 Feb - 20:10:12 10° W 20:19:44 76° S 20:36:34 10° E visible
05 Feb - 22:21:59 10° W 22:34:46 67° SSW 22:53:58 10° ESE visible
06 Feb - 00:35:38 10° W 00:50:17 40° SSW 01:07:46 10° SSE visible
06 Feb - 02:56:09 10° WSW 03:04:46 15° SW 03:13:27 10° SSW visible
06 Feb - 16:46:25 10° SSW 16:51:39 31° SE 16:59:57 10° E daylight
06 Feb - 18:55:37 10° WSW 19:03:20 69° SSE 19:17:27 10° E visible
06 Feb - 21:06:41 10° W 21:17:22 74° S 21:35:21 10° ESE visible
06 Feb - 23:19:04 10° W 23:32:38 52° SSW 23:51:15 10° SE visible
07 Feb - 01:34:49 10° W 01:47:41 25° SW 02:01:52 10° S visible
07 Feb - 15:34:33 10° SSE 15:37:17 14° SE 15:40:39 10° ESE daylight
07 Feb - 17:41:29 10° SW 17:47:41 53° SSE 17:58:41 10° E daylight
07 Feb - 19:51:47 10° W 20:00:32 76° S 20:16:17 10° E visible
07 Feb - 22:03:20 10° W 22:15:06 62° SSW 22:33:32 10° ESE visible
08 Feb - 00:16:50 10° W 00:30:17 36° SSW 00:47:06 10° SSE visible
08 Feb - 02:39:12 10° WSW 02:44:52 12° SW 02:50:39 10° SSW visible
08 Feb - 16:27:58 10° SSW 16:32:46 32° SE 16:40:19 10° E daylight
08 Feb - 18:37:17 10° WSW 18:44:20 70° S 18:57:18 10° E visible
08 Feb - 20:48:11 10° W 20:57:59 70° S 21:14:57 10° ESE visible
08 Feb - 23:00:22 10° W 23:12:49 47° SSW 23:30:39 10° SE visible
